When you browse on this site, cookies collect data to enhance your experience and personalize the content and advertising you see.
Visit our Privacy Policy to learn more. By continuing to use the site, you agree to this use of cookies and data.
  • En España
  • Lista de países
  • Para 7 días
  • Temperatura del agua
  • Mapa Satelital
  • El tiempo en el mapa
  • Informadores
  • user-avatar
    Iniciar sesión

    Tiempo cada hora Novi Sad

    Hoy, 19 Febrero, Martes

    Tiempo Temperatura Precipitaciones Viento Presión Humedad
    00:00 +6°C° 0 mm 2 mps 753 mmHg 69%
    01:00 +6°C° 0 mm 2 mps 752 mmHg 71%
    02:00 +6°C° 0 mm 2 mps 752 mmHg 73%
    03:00 +5°C° 0 mm 2 mps 752 mmHg 75%
    04:00 +5°C° 0 mm 2 mps 752 mmHg 77%
    05:00 +6°C° 0 mm 1 mps 752 mmHg 78%
    06:00 +5°C° 0 mm 1 mps 752 mmHg 79%
    07:00 +5°C° 0 mm 1 mps 752 mmHg 80%
    08:00 +7°C° 0 mm 1 mps 752 mmHg 72%
    09:00 +9°C° 0 mm 1 mps 752 mmHg 63%
    10:00 +10°C° 0 mm 1 mps 752 mmHg 55%
    11:00 +12°C° 0 mm 1 mps 751 mmHg 50%
    12:00 +13°C° 0 mm 1 mps 751 mmHg 45%
    13:00 +15°C° 0 mm 1 mps 751 mmHg 40%
    14:00 +15°C° 0 mm 1 mps 751 mmHg 39%
    15:00 +15°C° 0 mm 1 mps 750 mmHg 39%
    16:00 +15°C° 0 mm 1 mps 750 mmHg 38%
    17:00 +14°C° 0 mm 1 mps 750 mmHg 42%
    18:00 +13°C° 0 mm 1 mps 751 mmHg 46%
    19:00 +11°C° 0 mm 1 mps 751 mmHg 50%
    20:00 +11°C° 0 mm 1 mps 751 mmHg 52%
    21:00 +9°C° 0 mm 2 mps 751 mmHg 55%
    22:00 +8°C° 0 mm 2 mps 751 mmHg 58%
    23:00 +8°C° 0 mm 2 mps 751 mmHg 62%

    Mañana, 20 Febrero, Miércoles

    Tiempo Temperatura Precipitaciones Viento Presión Humedad
    00:00 +7°C° 0 mm 2 mps 752 mmHg 66%
    01:00 +6°C° 0 mm 2 mps 752 mmHg 71%
    02:00 +6°C° 0 mm 2 mps 752 mmHg 72%
    03:00 +6°C° 0 mm 2 mps 752 mmHg 74%
    04:00 +5°C° 0 mm 2 mps 752 mmHg 76%
    05:00 +5°C° 0 mm 2 mps 752 mmHg 75%
    06:00 +5°C° 0 mm 2 mps 752 mmHg 75%
    07:00 +5°C° 0 mm 2 mps 753 mmHg 74%
    08:00 +7°C° 0 mm 2 mps 753 mmHg 67%
    09:00 +8°C° 0 mm 2 mps 754 mmHg 60%
    10:00 +10°C° 0 mm 3 mps 754 mmHg 53%
    11:00 +11°C° 0 mm 3 mps 754 mmHg 50%
    12:00 +12°C° 0 mm 3 mps 754 mmHg 47%
    13:00 +13°C° 0 mm 4 mps 754 mmHg 44%
    14:00 +13°C° 0 mm 3 mps 754 mmHg 44%
    15:00 +13°C° 0 mm 3 mps 754 mmHg 43%
    16:00 +13°C° 0 mm 3 mps 754 mmHg 43%
    17:00 +12°C° 0 mm 3 mps 754 mmHg 47%
    18:00 +12°C° 0 mm 2 mps 754 mmHg 51%
    19:00 +9°C° 0 mm 2 mps 755 mmHg 55%
    20:00 +9°C° 0 mm 2 mps 755 mmHg 55%
    21:00 +9°C° 0 mm 1 mps 755 mmHg 56%
    22:00 +9°C° 0 mm 1 mps 756 mmHg 56%
    23:00 +8°C° 0 mm 1 mps 756 mmHg 57%

    Pasado mañana, 21 Febrero, Jueves

    Tiempo Temperatura Precipitaciones Viento Presión Humedad
    00:00 +8°C° 0 mm 1 mps 756 mmHg 58%
    01:00 +7°C° 0 mm 1 mps 756 mmHg 59%
    02:00 +7°C° 0 mm 1 mps 756 mmHg 60%
    03:00 +6°C° 0 mm 0 mps 756 mmHg 61%
    04:00 +5°C° 0 mm 0 mps 756 mmHg 62%
    05:00 +6°C° 0 mm 1 mps 756 mmHg 63%
    06:00 +6°C° 0 mm 1 mps 757 mmHg 64%
    07:00 +6°C° 0 mm 1 mps 757 mmHg 65%
    08:00 +8°C° 0 mm 1 mps 757 mmHg 60%
    09:00 +8°C° 0 mm 2 mps 757 mmHg 55%
    10:00 +10°C° 0 mm 2 mps 757 mmHg 50%
    11:00 +12°C° 0 mm 2 mps 757 mmHg 48%
    12:00 +13°C° 0 mm 2 mps 757 mmHg 46%
    13:00 +13°C° 0 mm 3 mps 757 mmHg 44%
    14:00 +13°C° 0 mm 3 mps 756 mmHg 45%
    15:00 +13°C° 0 mm 3 mps 756 mmHg 45%
    16:00 +13°C° 0 mm 3 mps 755 mmHg 45%
    17:00 +13°C° 0 mm 2 mps 756 mmHg 50%
    18:00 +12°C° 0 mm 2 mps 756 mmHg 54%
    19:00 +11°C° 0 mm 1 mps 756 mmHg 58%
    20:00 +10°C° 0.2 mm 2 mps 756 mmHg 62%
    21:00 +10°C° 0.2 mm 2 mps 756 mmHg 65%
    22:00 +9°C° 0.2 mm 3 mps 756 mmHg 69%
    23:00 +9°C° 0.5 mm 3 mps 756 mmHg 74%

    22 Febrero, Viernes

    Tiempo Temperatura Precipitaciones Viento Presión Humedad
    00:00 +9°C° 0.5 mm 3 mps 756 mmHg 78%
    01:00 +8°C° 0.5 mm 3 mps 755 mmHg 82%
    02:00 +8°C° 0.1 mm 3 mps 755 mmHg 82%
    03:00 +7°C° 0.1 mm 4 mps 755 mmHg 82%
    04:00 +7°C° 0.1 mm 4 mps 754 mmHg 82%
    05:00 +7°C° 0.5 mm 5 mps 754 mmHg 82%
    06:00 +7°C° 0.5 mm 6 mps 754 mmHg 81%
    07:00 +7°C° 0.5 mm 6 mps 754 mmHg 81%
    08:00 +8°C° 0.6 mm 7 mps 754 mmHg 78%
    09:00 +8°C° 0.6 mm 7 mps 754 mmHg 75%
    10:00 +9°C° 0.6 mm 8 mps 754 mmHg 73%
    11:00 +9°C° 0.1 mm 8 mps 754 mmHg 70%
    12:00 +10°C° 0.1 mm 7 mps 753 mmHg 66%
    13:00 +10°C° 0.1 mm 7 mps 753 mmHg 63%
    14:00 +10°C° 0.4 mm 7 mps 753 mmHg 64%
    15:00 +10°C° 0.4 mm 7 mps 753 mmHg 66%
    16:00 +10°C° 0.4 mm 6 mps 753 mmHg 67%
    17:00 +8°C° 0.4 mm 7 mps 754 mmHg 63%
    18:00 +5°C° 0.4 mm 8 mps 755 mmHg 59%
    19:00 +2°C° 0.4 mm 9 mps 755 mmHg 55%
    20:00 +1°C° 0 mm 9 mps 757 mmHg 54%
    21:00 -1°C° 0 mm 9 mps 758 mmHg 53%
    22:00 -3°C° 0 mm 9 mps 759 mmHg 51%
    23:00 -4°C° 0 mm 8 mps 759 mmHg 51%

    23 Febrero, Sábado

    Tiempo Temperatura Precipitaciones Viento Presión Humedad
    00:00 -4°C° 0 mm 7 mps 760 mmHg 52%
    01:00 -6°C° 0 mm 7 mps 761 mmHg 52%
    02:00 -6°C° 0 mm 7 mps 761 mmHg 50%
    03:00 -5°C° 0 mm 6 mps 762 mmHg 47%
    04:00 -5°C° 0 mm 6 mps 762 mmHg 45%
    05:00 -5°C° 0 mm 6 mps 762 mmHg 44%
    06:00 -6°C° 0 mm 6 mps 763 mmHg 42%
    07:00 -7°C° 0 mm 7 mps 763 mmHg 41%
    08:00 -6°C° 0 mm 7 mps 764 mmHg 37%
    09:00 -4°C° 0 mm 7 mps 764 mmHg 34%
    10:00 -3°C° 0 mm 7 mps 764 mmHg 30%
    11:00 -2°C° 0 mm 7 mps 764 mmHg 28%
    12:00 -2°C° 0 mm 6 mps 764 mmHg 27%
    13:00 -1°C° 0 mm 6 mps 763 mmHg 25%
    14:00 -1°C° 0 mm 6 mps 763 mmHg 26%
    15:00 -1°C° 0 mm 6 mps 763 mmHg 28%
    16:00 -1°C° 0 mm 6 mps 763 mmHg 29%
    17:00 -1°C° 0 mm 5 mps 763 mmHg 34%
    18:00 -2°C° 0 mm 4 mps 763 mmHg 38%
    19:00 -2°C° 0 mm 3 mps 763 mmHg 43%
    20:00 -2°C° 0 mm 2 mps 762 mmHg 44%
    21:00 -2°C° 0 mm 2 mps 762 mmHg 44%
    22:00 -2°C° 0 mm 2 mps 762 mmHg 45%
    23:00 -2°C° 0 mm 2 mps 762 mmHg 44%

    24 Febrero, Domingo

    Tiempo Temperatura Precipitaciones Viento Presión Humedad
    00:00 -2°C° 0 mm 3 mps 762 mmHg 44%
    01:00 -2°C° 0 mm 3 mps 762 mmHg 43%
    02:00 -2°C° 0 mm 3 mps 762 mmHg 45%
    03:00 -2°C° 0 mm 3 mps 761 mmHg 46%
    04:00 -4°C° 0 mm 3 mps 761 mmHg 48%
    05:00 -4°C° 0 mm 3 mps 761 mmHg 47%
    06:00 -4°C° 0 mm 3 mps 761 mmHg 47%
    07:00 -4°C° 0 mm 3 mps 762 mmHg 46%
    08:00 -2°C° 0 mm 3 mps 762 mmHg 43%
    09:00 -1°C° 0 mm 4 mps 762 mmHg 40%
    10:00 0°C° 0 mm 5 mps 762 mmHg 37%
    11:00 +1°C° 0 mm 5 mps 761 mmHg 38%
    12:00 +2°C° 0 mm 5 mps 761 mmHg 38%
    13:00 +3°C° 0 mm 5 mps 761 mmHg 39%
    14:00 +3°C° 0 mm 5 mps 761 mmHg 40%
    15:00 +3°C° 0 mm 5 mps 760 mmHg 41%
    16:00 +3°C° 0 mm 5 mps 760 mmHg 42%
    17:00 +3°C° 0 mm 4 mps 760 mmHg 47%
    18:00 +2°C° 0 mm 3 mps 760 mmHg 53%
    19:00 +1°C° 0 mm 2 mps 760 mmHg 58%
    20:00 +1°C° 0 mm 2 mps 760 mmHg 61%
    21:00 +1°C° 0 mm 2 mps 760 mmHg 64%
    22:00 -1°C° 0 mm 2 mps 760 mmHg 67%
    23:00 -1°C° 0 mm 2 mps 760 mmHg 69%
    Mostrar más